Weather History for KMMK - January, 2013

Change the Weather History Date:

Thursday, January 17, 2013

  Actual Average (KHVN) Record (KHVN)
Temperature  
Mean Temperature 36 °F -  
Max Temperature 43 °F 32 °F 54 °F (1990)
Min Temperature 28 °F 20 °F 1 °F (1982)
Degree Days  
Heating Degree Days 30    
Moisture  
Dew Point 25 °F    
Average Humidity 68    
Maximum Humidity 100    
Minimum Humidity 49    
Precipitation  
Precipitation 0.00 in - - ()
Sea Level Pressure  
Sea Level Pressure 30.01 in    
Wind  
Wind Speed 5 mph (NW)    
Max Wind Speed 12 mph    
Max Gust Speed 17 mph    
Visibility 9 miles    
Events      
Averages and records for this station are not official NWS values.
T = Trace of Precipitation, MM = Missing Value Source: NWS Daily Summary

Daily Weather History Graph

Daily Weather History Graph

Search for Another Location

Airport or City:

Trip Planner

Search our weather history database for the weather conditions in past years. The results will help you decide how hot, cold, wet, or windy it might be!

Date:

Astronomy

Jan. 17, 2013 Rise Set
Actual Time 7:14 AM EST 4:49 PM EST
Civil Twilight 6:43 AM EST 5:19 PM EST
Nautical Twilight 6:09 AM EST 5:53 PM EST
Astronomical Twilight 5:36 AM EST 6:26 PM EST
Moon 10:14 AM EST (1/17) 11:43 PM EST (1/17)
Length of Visible Light 10h 35m
Length of Day
9h 34m
Waxing Crescent, 37% of the Moon is Illuminated
Jan 17
Waxing Crescent
Jan 18
First Quarter
Jan 26
Full
Feb 3
Last Quarter
Feb 10
New

Hourly Weather History & Observations

Time (EST) Temp. Windchill Dew Point Humidity Pressure Visibility Wind Dir Wind Speed Gust Speed Precip Events Conditions
12:10 AM 28.4 °F 23.3 °F 26.6 °F 93% 29.88 in 1.2 mi South 4.6 mph - N/A   Partly Cloudy
12:18 AM 30.2 °F 23.4 °F 30.2 °F 100% 29.89 in 3.0 mi South 6.9 mph - N/A   Partly Cloudy
12:53 AM 30.9 °F 26.2 °F 30.0 °F 96% 29.90 in 4.0 mi South 4.6 mph - N/A   Clear
1:53 AM 30.9 °F - 28.9 °F 92% 29.90 in 4.0 mi Calm Calm - N/A   Clear
2:53 AM 34.0 °F 29.8 °F 30.0 °F 85% 29.90 in 10.0 mi West 4.6 mph - N/A   Clear
4:53 AM 35.1 °F 32.2 °F 28.0 °F 76% 29.90 in 10.0 mi Variable 3.5 mph - N/A   Clear
5:53 AM 30.9 °F - 28.0 °F 89% 29.93 in 10.0 mi Calm Calm - N/A   Clear
7:53 AM 32.0 °F - 27.0 °F 82% 29.99 in 10.0 mi Calm Calm - N/A   Clear
8:53 AM 36.0 °F 32.1 °F 28.0 °F 73% 30.02 in 10.0 mi WNW 4.6 mph - N/A   Clear
9:53 AM 37.0 °F 34.5 °F 28.0 °F 70% 30.04 in 10.0 mi West 3.5 mph - N/A   Clear
10:53 AM 37.9 °F 32.7 °F 27.0 °F 65% 30.02 in 10.0 mi West 6.9 mph - N/A   Clear
11:53 AM 39.9 °F 34.5 °F 28.0 °F 63% 30.01 in 10.0 mi WNW 8.1 mph - N/A   Clear
12:53 PM 43.0 °F 37.2 °F 26.1 °F 51% 30.01 in 10.0 mi WNW 10.4 mph 16.1 mph N/A   Clear
1:53 PM 42.1 °F 37.7 °F 25.0 °F 51% 30.02 in 10.0 mi NW 6.9 mph - N/A   Mostly Cloudy
2:53 PM 41.0 °F 36.4 °F 26.1 °F 55% 30.04 in 10.0 mi WNW 6.9 mph - N/A   Overcast
3:53 PM 41.0 °F 36.4 °F 25.0 °F 53% 30.04 in 10.0 mi NNW 6.9 mph - N/A   Clear
4:53 PM 39.9 °F 35.1 °F 27.0 °F 60% 30.06 in 10.0 mi North 6.9 mph - N/A   Mostly Cloudy
5:53 PM 37.9 °F 32.7 °F 25.0 °F 60% 30.09 in 10.0 mi NNW 6.9 mph - N/A   Overcast
6:53 PM 36.0 °F 29.6 °F 23.0 °F 59% 30.11 in 10.0 mi NNW 8.1 mph - N/A   Overcast
7:53 PM 35.1 °F 27.9 °F 19.0 °F 52% 30.11 in 10.0 mi NW 9.2 mph - N/A   Overcast
8:53 PM 33.1 °F 25.5 °F 18.0 °F 54% 30.10 in 10.0 mi North 9.2 mph - N/A   Overcast
9:53 PM 32.0 °F 25.6 °F 18.0 °F 56% 30.09 in 10.0 mi NNW 6.9 mph - N/A   Mostly Cloudy
10:53 PM 30.9 °F 22.2 °F 18.0 °F 59% 30.04 in 10.0 mi North 10.4 mph - N/A   Mostly Cloudy
11:53 PM 30.0 °F 20.5 °F 12.9 °F 49% 30.07 in 10.0 mi NNW 11.5 mph 17.3 mph N/A   Overcast